Home > Weather > Pago Pago > Past weeks

Flag for American Samoa Weather for the Past 2 Weeks in Pago Pago, American Samoa

Now
78 °F

Sprinkles. Mostly cloudy.


Feels Like: 79 °F
Forecast: 78 / 82 °F
Wind: 6 mph from North

Location: Pago Pago / Int. Airp.

Current Time: May 1, 2016 at 3:21:02 PM

Latest Report: May 1, 2016 at 1:55 PM


Visibility: 4 mi

Pressure: 29.78 "Hg

Humidity: 97%

Dew Point: 76 °F

Location of Pago PagoLocation

Historic Weather in Pago Pago — Graph

°F

Pago Pago Temperature Yesterday

Maximum temperature yesterday: 81 °F (at 9:51 AM)
Minimum temperature yesterday: 76 °F (at 7:50 PM)
Average temperature yesterday: 79 °F

High & Low Weather Summary for the Past Weeks

 TemperatureHumidityPressure
High87 °F (Apr 17, 1:52 PM)100% (Apr 16, 9:50 PM)29.90 "Hg (Apr 16, 9:50 PM)
Low76 °F (Apr 29, 10:50 PM)71% (Apr 21, 10:50 AM)29.51 "Hg (Apr 23, 4:52 AM)
Average81 °F88%29.78 "Hg
* Reported Apr 16 1:51 PM — May 1 1:55 PM, Pago Pago, Weather by CustomWeather, © 2016

Note: Actual official high and low records may vary slightly from our data, if they occured in-between our weather recording intervals... More about our weather records

Advertising

Pago Pago Weather History for the Previous 24 Hours

Scroll right to see more
 ConditionsComfort  
Time TempWeatherWind HumidityBarometerVisibility
1:55 PM
Sun, May 1
78 °FSprinkles. Mostly cloudy.6 mph97%29.78 "Hg4 mi
12:51 PM78 °FLots of rain. Mostly cloudy.17 mph95%29.78 "Hg1 mi
10:57 AM80 °FLots of rain. Mostly cloudy.25 mph94%29.79 "Hg0 mi
9:50 AM83 °FSprinkles. More clouds than sun.21 mph90%29.81 "Hg12 mi
8:50 AM81 °FMore clouds than sun.16 mph93%29.81 "Hg12 mi
7:50 AM80 °FCloudy.7 mph94%29.80 "Hg12 mi
6:50 AM79 °FBroken clouds.9 mph96%29.76 "Hg12 mi
5:50 AM78 °FSprinkles. Overcast.9 mph97%29.75 "Hg5 mi
4:50 AM79 °FPartly cloudy.3 mph95%29.73 "Hg10 mi
2:57 AM79 °FSprinkles. Overcast.17 mph94%29.73 "Hg7 mi
1:52 AM79 °FSprinkles. Overcast.18 mph93%29.76 "Hg7 mi
12:50 AM81 °FOvercast.21 mph92%29.78 "Hg10 mi
12:00 AM80 °FOvercast.17 mph93%29.79 "Hg10 mi
11:51 PM
Sat, Apr 30
80 °FOvercast.17 mph93%29.79 "Hg10 mi
11:00 PM81 °FPartly cloudy.10 mph92%29.80 "Hg10 mi
10:51 PM81 °FPartly cloudy.10 mph92%29.80 "Hg10 mi
10:00 PM80 °FPartly cloudy.13 mph92%29.82 "Hg10 mi
9:50 PM81 °FPartly cloudy.13 mph89%29.82 "Hg10 mi
8:50 PM77 °FSprinkles. Mostly cloudy.6 mph95%29.80 "Hg8 mi
8:00 PM76 °FSprinkles. Mostly cloudy.12 mph93%29.79 "Hg8 mi
7:50 PM76 °FSprinkles. Mostly cloudy.12 mph93%29.79 "Hg8 mi
7:00 PM77 °FSprinkles. Mostly cloudy.14 mph94%29.77 "Hg8 mi
6:51 PM77 °FSprinkles. Mostly cloudy.14 mph94%29.77 "Hg8 mi
5:52 PM78 °FSprinkles. Mostly cloudy.18 mph95%29.76 "Hg8 mi
4:50 PM78 °FSprinkles. Mostly cloudy.17 mph95%29.75 "Hg8 mi
3:50 PM77 °FSprinkles. Mostly cloudy.15 mph96%29.75 "Hg8 mi
Weather by CustomWeather, © 2016

See weather overviewHow to use our weather pages